Regional Weather Roundup
Issued by NWS

Home | Current Version | Previous Version | Graphics & Text | Print | Product List | Glossary On
Versions: 1 2 3 4 5 6 7 8 9 10 11 12 13 14 15 16 17 18 19 20 21 22 23 24 25 26 27 28 29 30 31 32 33 34 35 36 37 38 39 40 41 42 43 44 45 46 47 48 49 50
000
ASUS43 KFSD 041502
RWRSD

WEATHER ROUNDUP FOR SOUTH DAKOTA
NATIONAL WEATHER SERVICE SIOUX FALLS SD
900 AM CST SUN DEC 04 2016

NOTE: "FAIR" INDICATES FEW OR NO CLOUDS BELOW 12,000 FEET WITH NO
SIGNIFICANT WEATHER AND/OR OBSTRUCTIONS TO VISIBILITY.


SDZ001>005-009-010-012>017-041600-
NORTHWEST AND NORTH CENTRAL SOUTH DAKOTA

CITY           SKY/WX    TMP DP  RH WIND       PRES   REMARKS
BUFFALO          N/A     28  20  71 W10       29.75S WCI  19
FAITH            N/A     30  23  75 W16       29.83R WCI  19
MOBRIDGE       CLEAR     29  20  69 W10       29.79S WCI  20
$$

SDZ012>016-024>037-041>051-057-063-072>074-041600-
SOUTHWEST AND SOUTH CENTRAL SOUTH DAKOTA

CITY           SKY/WX    TMP DP  RH WIND       PRES   REMARKS
RAPID CTY ARPT CLEAR     27  17  66 W7        29.88S WCI  19
PIERRE         CLEAR     26  21  81 W3        29.86S
CUSTER         CLEAR     21  15  78 SW7       29.85S WCI  12
ELLSWORTH AFB  CLEAR     29  20  67 W9        29.87S WCI  21
PHILIP         CLOUDY    27  21  78 W6        29.89S WCI  20
PINE RIDGE     CLEAR     28  16  60 SW9       29.94S WCI  19
SPEARFISH      FAIR      32  18  55 W10       29.85F WCI  24
WINNER         FAIR      35  25  66 W6        29.89F
$$

SDZ004>011-016>023-039-040-041600-
NORTHEAST SOUTH DAKOTA

CITY           SKY/WX    TMP DP  RH WIND       PRES   REMARKS
ABERDEEN       CLEAR     29  25  85 SW8       29.80R WCI  21
WATERTOWN      PTCLDY    30  28  92 W14       29.79F WCI  19
SISSETON         N/A     35  31  85 W7        29.75F WCI  29
$$

SDZ017-020-022-023-036>040-048>070-041600-
SOUTHEAST SOUTH DAKOTA

CITY           SKY/WX    TMP DP  RH WIND       PRES   REMARKS
SIOUX FALLS    MOSUNNY   32  30  92 SW6       29.87  WCI  26
HURON          CLEAR     30  26  85 W9        29.86S WCI  22
CHAMBERLAIN    PTCLDY    33  28  80 W8        29.88F WCI  26
MITCHELL       CLEAR     32  26  78 W8        29.89S WCI  25
YANKTON        SUNNY     34  28  80 W8        29.90F WCI  27
$$

ABBREVIATIONS USED IN REMARKS
   TC - TEMPERATURE IN CELSIUS
  WCI - WIND CHILL INDEX
   HX - HEAT INDEX
  VSB - VISIBILITY





USA.gov is the U.S. government's official web portal to all federal, state and local government web resources and services.